• In Deutschland
  • Länderverzeichnis
  • Für 7 Tage
  • Wassertemperatur
  • Satellitenkarten
  • Wetterkarte
  • Widgets
  • user-avatar
    Anmelden

    Stündliche Wetter Crimmitschau

    Heute, 19 Oktober, Donnerstag

    Zeit Temperatur Niederschläge Wind Luftdruck Luftfeuchtigkeit
    00:00 +12°C° 0 mm 2 m/S 737 mmHg 82%
    01:00 +12°C° 0 mm 2 m/S 737 mmHg 83%
    02:00 +10°C° 0 mm 2 m/S 737 mmHg 82%
    03:00 +10°C° 0 mm 2 m/S 737 mmHg 81%
    04:00 +10°C° 0 mm 2 m/S 737 mmHg 80%
    05:00 +10°C° 0 mm 2 m/S 737 mmHg 79%
    06:00 +10°C° 0 mm 2 m/S 737 mmHg 78%
    07:00 +10°C° 0 mm 2 m/S 737 mmHg 76%
    08:00 +13°C° 0 mm 2 m/S 737 mmHg 70%
    09:00 +15°C° 0 mm 2 m/S 738 mmHg 65%
    10:00 +17°C° 0 mm 2 m/S 738 mmHg 59%
    11:00 +18°C° 0 mm 2 m/S 738 mmHg 55%
    12:00 +20°C° 0 mm 2 m/S 738 mmHg 51%
    13:00 +20°C° 0 mm 2 m/S 738 mmHg 48%
    14:00 +20°C° 0 mm 2 m/S 737 mmHg 51%
    15:00 +19°C° 0 mm 2 m/S 737 mmHg 55%
    16:00 +19°C° 0 mm 2 m/S 737 mmHg 58%
    17:00 +17°C° 0 mm 2 m/S 737 mmHg 62%
    18:00 +16°C° 0 mm 2 m/S 737 mmHg 66%
    19:00 +13°C° 0 mm 3 m/S 737 mmHg 70%
    20:00 +13°C° 0 mm 3 m/S 737 mmHg 70%
    21:00 +13°C° 0 mm 3 m/S 737 mmHg 70%
    22:00 +12°C° 0 mm 3 m/S 737 mmHg 70%
    23:00 +12°C° 0 mm 3 m/S 737 mmHg 70%

    Morgen, 20 Oktober, Freitag

    Zeit Temperatur Niederschläge Wind Luftdruck Luftfeuchtigkeit
    00:00 +13°C° 0 mm 2 m/S 737 mmHg 70%
    01:00 +13°C° 0 mm 2 m/S 737 mmHg 70%
    02:00 +13°C° 0 mm 2 m/S 737 mmHg 69%
    03:00 +12°C° 0 mm 2 m/S 737 mmHg 69%
    04:00 +12°C° 0 mm 2 m/S 737 mmHg 68%
    05:00 +12°C° 0 mm 2 m/S 737 mmHg 67%
    06:00 +12°C° 0 mm 2 m/S 737 mmHg 66%
    07:00 +12°C° 0 mm 2 m/S 737 mmHg 65%
    08:00 +13°C° 0 mm 3 m/S 737 mmHg 61%
    09:00 +16°C° 0 mm 3 m/S 737 mmHg 57%
    10:00 +17°C° 0 mm 3 m/S 738 mmHg 53%
    11:00 +18°C° 0 mm 3 m/S 738 mmHg 52%
    12:00 +19°C° 0 mm 4 m/S 738 mmHg 51%
    13:00 +20°C° 0 mm 4 m/S 738 mmHg 50%
    14:00 +19°C° 0,1 mm 3 m/S 738 mmHg 58%
    15:00 +17°C° 0,1 mm 3 m/S 738 mmHg 65%
    16:00 +16°C° 0,1 mm 3 m/S 738 mmHg 73%
    17:00 +16°C° 0,1 mm 3 m/S 738 mmHg 77%
    18:00 +14°C° 0,1 mm 3 m/S 738 mmHg 80%
    19:00 +13°C° 0,1 mm 3 m/S 738 mmHg 84%
    20:00 +13°C° 0 mm 3 m/S 738 mmHg 86%
    21:00 +12°C° 0 mm 3 m/S 738 mmHg 88%
    22:00 +12°C° 0 mm 3 m/S 739 mmHg 90%
    23:00 +11°C° 0 mm 3 m/S 739 mmHg 91%

    übermorgen, 21 Oktober, Samstag

    Zeit Temperatur Niederschläge Wind Luftdruck Luftfeuchtigkeit
    00:00 +11°C° 0 mm 3 m/S 739 mmHg 93%
    01:00 +10°C° 0 mm 3 m/S 739 mmHg 94%
    02:00 +10°C° 0 mm 3 m/S 739 mmHg 94%
    03:00 +10°C° 0 mm 2 m/S 739 mmHg 94%
    04:00 +10°C° 0 mm 2 m/S 739 mmHg 94%
    05:00 +10°C° 0 mm 2 m/S 738 mmHg 93%
    06:00 +12°C° 0 mm 2 m/S 738 mmHg 92%
    07:00 +12°C° 0 mm 2 m/S 738 mmHg 91%
    08:00 +12°C° 0 mm 3 m/S 738 mmHg 87%
    09:00 +14°C° 0 mm 3 m/S 738 mmHg 83%
    10:00 +16°C° 0 mm 3 m/S 738 mmHg 79%
    11:00 +17°C° 0 mm 4 m/S 738 mmHg 75%
    12:00 +18°C° 0 mm 4 m/S 737 mmHg 70%
    13:00 +19°C° 0 mm 5 m/S 737 mmHg 66%
    14:00 +19°C° 0 mm 4 m/S 737 mmHg 68%
    15:00 +18°C° 0 mm 3 m/S 737 mmHg 70%
    16:00 +18°C° 0 mm 3 m/S 736 mmHg 72%
    17:00 +17°C° 0 mm 3 m/S 736 mmHg 76%
    18:00 +16°C° 0 mm 3 m/S 736 mmHg 80%
    19:00 +14°C° 0 mm 3 m/S 737 mmHg 83%
    20:00 +14°C° 1 mm 3 m/S 737 mmHg 86%
    21:00 +14°C° 1 mm 3 m/S 737 mmHg 89%
    22:00 +14°C° 1 mm 3 m/S 737 mmHg 91%
    23:00 +13°C° 0,5 mm 4 m/S 737 mmHg 91%

    22 Oktober, Sonntag

    Zeit Temperatur Niederschläge Wind Luftdruck Luftfeuchtigkeit
    00:00 +12°C° 0,5 mm 4 m/S 738 mmHg 90%
    01:00 +12°C° 0,5 mm 4 m/S 738 mmHg 89%
    02:00 +11°C° 0,1 mm 4 m/S 738 mmHg 89%
    03:00 +11°C° 0,1 mm 4 m/S 738 mmHg 89%
    04:00 +10°C° 0,1 mm 4 m/S 738 mmHg 89%
    05:00 +10°C° 0 mm 4 m/S 738 mmHg 89%
    06:00 +10°C° 0 mm 4 m/S 738 mmHg 89%
    07:00 +8°C° 0 mm 4 m/S 738 mmHg 89%
    08:00 +10°C° 0 mm 4 m/S 738 mmHg 85%
    09:00 +9°C° 0 mm 5 m/S 738 mmHg 80%
    10:00 +10°C° 0 mm 5 m/S 738 mmHg 76%
    11:00 +10°C° 0 mm 5 m/S 738 mmHg 74%
    12:00 +10°C° 0 mm 5 m/S 738 mmHg 72%
    13:00 +10°C° 0 mm 5 m/S 738 mmHg 70%
    14:00 +10°C° 0 mm 5 m/S 738 mmHg 71%
    15:00 +10°C° 0 mm 4 m/S 737 mmHg 72%
    16:00 +10°C° 0 mm 3 m/S 737 mmHg 73%
    17:00 +10°C° 0 mm 3 m/S 738 mmHg 74%
    18:00 +9°C° 0 mm 3 m/S 738 mmHg 76%
    19:00 +8°C° 0 mm 3 m/S 738 mmHg 78%
    20:00 +8°C° 0 mm 3 m/S 738 mmHg 79%
    21:00 +8°C° 0 mm 3 m/S 738 mmHg 80%
    22:00 +7°C° 0 mm 3 m/S 738 mmHg 81%
    23:00 +7°C° 0 mm 3 m/S 738 mmHg 83%

    23 Oktober, Montag

    Zeit Temperatur Niederschläge Wind Luftdruck Luftfeuchtigkeit
    00:00 +7°C° 0 mm 3 m/S 738 mmHg 84%
    01:00 +6°C° 0 mm 2 m/S 738 mmHg 86%
    02:00 +5°C° 0 mm 3 m/S 738 mmHg 87%
    03:00 +5°C° 0 mm 3 m/S 738 mmHg 89%
    04:00 +5°C° 0 mm 3 m/S 738 mmHg 90%
    05:00 +5°C° 0 mm 3 m/S 738 mmHg 91%
    06:00 +4°C° 0 mm 3 m/S 739 mmHg 92%
    07:00 +5°C° 0 mm 2 m/S 739 mmHg 92%
    08:00 +7°C° 0 mm 3 m/S 739 mmHg 87%
    09:00 +8°C° 0 mm 3 m/S 739 mmHg 81%
    10:00 +9°C° 0 mm 3 m/S 739 mmHg 75%
    11:00 +10°C° 0 mm 3 m/S 739 mmHg 72%
    12:00 +11°C° 0 mm 3 m/S 739 mmHg 70%
    13:00 +11°C° 0 mm 3 m/S 739 mmHg 67%
    14:00 +11°C° 0 mm 3 m/S 740 mmHg 71%
    15:00 +12°C° 0 mm 2 m/S 740 mmHg 74%
    16:00 +10°C° 0 mm 2 m/S 740 mmHg 78%
    17:00 +10°C° 0 mm 2 m/S 741 mmHg 82%
    18:00 +9°C° 0 mm 2 m/S 741 mmHg 87%
    19:00 +8°C° 0 mm 2 m/S 741 mmHg 91%
    20:00 +8°C° 0,1 mm 2 m/S 742 mmHg 92%
    21:00 +8°C° 0,1 mm 2 m/S 742 mmHg 93%
    22:00 +8°C° 0,1 mm 2 m/S 742 mmHg 93%
    23:00 +8°C° 0 mm 2 m/S 742 mmHg 94%

    24 Oktober, Dienstag

    Zeit Temperatur Niederschläge Wind Luftdruck Luftfeuchtigkeit
    00:00 +8°C° 0 mm 2 m/S 743 mmHg 94%
    01:00 +7°C° 0 mm 2 m/S 743 mmHg 95%
    02:00 +7°C° 0 mm 2 m/S 743 mmHg 95%
    03:00 +6°C° 0 mm 2 m/S 743 mmHg 95%
    04:00 +6°C° 0 mm 2 m/S 743 mmHg 95%
    05:00 +6°C° 0 mm 2 m/S 743 mmHg 95%
    06:00 +6°C° 0 mm 2 m/S 743 mmHg 95%
    07:00 +6°C° 0 mm 2 m/S 743 mmHg 95%
    08:00 +7°C° 0 mm 2 m/S 743 mmHg 90%
    09:00 +9°C° 0 mm 2 m/S 744 mmHg 85%
    10:00 +12°C° 0 mm 2 m/S 744 mmHg 80%
    11:00 +13°C° 0 mm 2 m/S 744 mmHg 77%
    12:00 +13°C° 0 mm 2 m/S 744 mmHg 74%
    13:00 +14°C° 0 mm 2 m/S 744 mmHg 71%
    14:00 +14°C° 0 mm 1 m/S 744 mmHg 74%
    15:00 +13°C° 0 mm 1 m/S 744 mmHg 77%
    16:00 +13°C° 0 mm 1 m/S 744 mmHg 80%
    17:00 +12°C° 0 mm 1 m/S 744 mmHg 83%
    18:00 +12°C° 0 mm 1 m/S 744 mmHg 86%
    19:00 +11°C° 0 mm 1 m/S 745 mmHg 89%
    20:00 +10°C° 0 mm 1 m/S 745 mmHg 90%
    21:00 +10°C° 0 mm 1 m/S 745 mmHg 91%
    22:00 +9°C° 0 mm 1 m/S 746 mmHg 93%
    23:00 +9°C° 0 mm 1 m/S 746 mmHg 93%
    Mehr zeigen